Time,TemperatureF,DewpointF,PressureIn,WindDirection,WindDirectionDegrees,WindSpeedMPH,WindSpeedGustMPH,Humidity,HourlyPrecipIn,Conditions,Clouds,dailyrainin,SoftwareType,DateUTC
2013-01-25 00:03:00,22.6,8.7,30.17,SSW,203,3.8,3.8,55,0.00,,,0.00,WUHU216HW,2013-01-25 06:03:00,
2013-01-25 00:08:00,22.6,8.7,30.16,South,180,6.7,8.7,55,0.00,,,0.00,WUHU216HW,2013-01-25 06:08:00,
2013-01-25 00:13:00,22.6,8.7,30.16,SSE,158,9.6,9.6,55,0.00,,,0.00,WUHU216HW,2013-01-25 06:13:00,
2013-01-25 00:18:00,22.6,8.3,30.16,South,180,5.1,9.6,54,0.00,,,0.00,WUHU216HW,2013-01-25 06:18:00,
2013-01-25 00:23:00,22.6,8.3,30.15,SSE,158,6.0,8.9,54,0.00,,,0.00,WUHU216HW,2013-01-25 06:23:00,
2013-01-25 00:28:00,22.6,8.3,30.15,South,180,5.3,8.9,54,0.00,,,0.00,WUHU216HW,2013-01-25 06:28:00,
2013-01-25 00:33:00,22.6,8.3,30.14,South,180,3.5,6.4,54,0.00,,,0.00,WUHU216HW,2013-01-25 06:33:00,
2013-01-25 00:38:00,22.6,8.7,30.14,South,180,5.1,8.2,55,0.00,,,0.00,WUHU216HW,2013-01-25 06:38:00,
2013-01-25 00:43:00,22.6,8.7,30.14,South,180,12.0,12.0,55,0.00,,,0.00,WUHU216HW,2013-01-25 06:43:00,
2013-01-25 00:49:00,22.6,8.7,30.13,South,180,12.9,12.9,55,0.00,,,0.00,WUHU216HW,2013-01-25 06:49:00,
2013-01-25 00:54:00,22.6,8.7,30.13,SSW,203,6.9,12.9,55,0.00,,,0.00,WUHU216HW,2013-01-25 06:54:00,
2013-01-25 00:59:00,22.6,8.7,30.12,SSE,158,12.9,12.9,55,0.00,,,0.00,WUHU216HW,2013-01-25 06:59:00,
2013-01-25 01:04:00,22.6,8.7,30.13,SSW,203,9.1,12.9,55,0.00,,,0.00,WUHU216HW,2013-01-25 07:04:00,
2013-01-25 01:09:00,22.6,8.7,30.13,SSW,203,7.1,9.1,55,0.00,,,0.00,WUHU216HW,2013-01-25 07:09:00,
2013-01-25 01:14:00,22.6,8.7,30.13,South,180,6.9,9.8,55,0.00,,,0.00,WUHU216HW,2013-01-25 07:14:00,
2013-01-25 01:19:00,22.4,8.6,30.13,SSW,203,7.3,9.8,55,0.00,,,0.00,WUHU216HW,2013-01-25 07:19:00,
2013-01-25 01:24:00,22.4,8.6,30.12,South,180,7.3,9.3,55,0.00,,,0.00,WUHU216HW,2013-01-25 07:24:00,
2013-01-25 01:29:00,22.4,8.6,30.12,SSW,203,5.8,10.5,55,0.00,,,0.00,WUHU216HW,2013-01-25 07:29:00,
2013-01-25 01:34:00,22.4,8.6,30.12,SW,225,6.4,10.5,55,0.00,,,0.00,WUHU216HW,2013-01-25 07:34:00,
2013-01-25 01:39:00,22.4,8.6,30.12,SSW,203,8.7,8.7,55,0.00,,,0.00,WUHU216HW,2013-01-25 07:39:00,
2013-01-25 01:44:00,22.4,8.6,30.12,South,180,6.0,8.7,55,0.00,,,0.00,WUHU216HW,2013-01-25 07:44:00,
2013-01-25 01:49:00,22.4,8.6,30.13,SSE,158,6.2,8.9,55,0.00,,,0.00,WUHU216HW,2013-01-25 07:49:00,
2013-01-25 01:54:00,22.4,8.6,30.13,WSW,248,0.8,8.9,55,0.00,,,0.00,WUHU216HW,2013-01-25 07:54:00,
2013-01-25 01:59:00,22.4,9.0,30.12,SSW,203,4.4,7.8,56,0.00,,,0.00,WUHU216HW,2013-01-25 07:59:00,
2013-01-25 02:04:00,22.4,9.0,30.13,SSW,203,1.7,7.8,56,0.00,,,0.00,WUHU216HW,2013-01-25 08:04:00,
2013-01-25 02:09:00,22.4,9.4,30.13,SSW,203,1.7,4.6,57,0.00,,,0.00,WUHU216HW,2013-01-25 08:09:00,
2013-01-25 02:14:00,22.2,9.2,30.13,SSW,203,3.5,7.1,57,0.00,,,0.00,WUHU216HW,2013-01-25 08:14:00,
2013-01-25 02:19:00,22.2,9.2,30.12,South,180,7.1,7.1,57,0.00,,,0.00,WUHU216HW,2013-01-25 08:19:00,
2013-01-25 02:24:00,22.2,9.2,30.12,SSW,203,6.2,7.1,57,0.00,,,0.00,WUHU216HW,2013-01-25 08:24:00,
2013-01-25 02:29:00,22.2,9.6,30.12,SSW,203,3.5,7.1,58,0.00,,,0.00,WUHU216HW,2013-01-25 08:29:00,
2013-01-25 02:34:00,22.2,9.6,30.11,SSW,203,6.9,6.9,58,0.00,,,0.00,WUHU216HW,2013-01-25 08:34:00,
2013-01-25 02:39:00,22.2,9.6,30.11,SSW,203,4.4,6.9,58,0.00,,,0.00,WUHU216HW,2013-01-25 08:39:00,
2013-01-25 02:44:00,22.2,10.0,30.11,South,180,6.0,6.9,59,0.00,,,0.00,WUHU216HW,2013-01-25 08:44:00,
2013-01-25 02:49:00,22.2,10.0,30.09,SSW,203,5.8,6.2,59,0.00,,,0.00,WUHU216HW,2013-01-25 08:49:00,
2013-01-25 02:54:00,22.2,10.0,30.09,SW,225,3.5,6.0,59,0.00,,,0.00,WUHU216HW,2013-01-25 08:54:00,
2013-01-25 02:59:00,22.2,10.4,30.09,SSW,203,5.5,5.8,60,0.00,,,0.00,WUHU216HW,2013-01-25 08:59:00,
2013-01-25 03:04:00,22.2,10.4,30.09,SW,225,3.1,6.9,60,0.00,,,0.00,WUHU216HW,2013-01-25 09:04:00,
2013-01-25 03:09:00,22.2,10.8,30.09,South,180,7.1,8.7,61,0.00,,,0.00,WUHU216HW,2013-01-25 09:09:00,
2013-01-25 03:14:00,22.1,10.6,30.08,South,180,7.6,8.7,61,0.00,,,0.00,WUHU216HW,2013-01-25 09:14:00,
2013-01-25 03:19:00,22.1,10.6,30.07,SSW,203,5.1,7.6,61,0.00,,,0.00,WUHU216HW,2013-01-25 09:19:00,
2013-01-25 03:24:00,22.1,11.0,30.07,SSW,203,8.2,8.2,62,0.00,,,0.00,WUHU216HW,2013-01-25 09:24:00,
2013-01-25 03:29:00,22.1,11.0,30.06,SSW,203,7.6,8.9,62,0.00,,,0.00,WUHU216HW,2013-01-25 09:29:00,
2013-01-25 03:34:00,21.9,11.1,30.06,South,180,6.0,8.9,63,0.00,,,0.00,WUHU216HW,2013-01-25 09:34:00,
2013-01-25 03:39:00,21.9,11.1,30.07,SW,225,4.9,7.6,63,0.00,,,0.00,WUHU216HW,2013-01-25 09:39:00,
2013-01-25 03:44:00,21.9,11.5,30.08,SSW,203,3.8,6.0,64,0.00,,,0.00,WUHU216HW,2013-01-25 09:44:00,
2013-01-25 03:49:00,21.9,11.5,30.09,West,270,5.8,5.8,64,0.00,,,0.00,WUHU216HW,2013-01-25 09:49:00,
2013-01-25 03:54:00,21.9,11.5,30.09,SSW,203,2.6,5.8,64,0.00,,,0.00,WUHU216HW,2013-01-25 09:54:00,
2013-01-25 03:59:00,21.9,11.8,30.09,SW,225,6.7,6.7,65,0.00,,,0.00,WUHU216HW,2013-01-25 09:59:00,
2013-01-25 04:04:00,21.9,11.8,30.09,WSW,248,2.4,6.7,65,0.00,,,0.00,WUHU216HW,2013-01-25 10:04:00,
2013-01-25 04:09:00,21.9,12.2,30.09,SSW,203,5.1,6.7,66,0.00,,,0.00,WUHU216HW,2013-01-25 10:09:00,
2013-01-25 04:14:00,21.9,12.2,30.09,SSW,203,2.9,11.1,66,0.00,,,0.00,WUHU216HW,2013-01-25 10:14:00,
2013-01-25 04:19:00,21.9,12.2,30.09,WSW,248,2.0,11.1,66,0.00,,,0.00,WUHU216HW,2013-01-25 10:19:00,
2013-01-25 04:24:00,21.9,12.2,30.09,WNW,293,0.0,5.8,66,0.00,,,0.00,WUHU216HW,2013-01-25 10:24:00,
2013-01-25 04:29:00,21.7,12.4,30.09,SW,225,2.9,2.9,67,0.00,,,0.00,WUHU216HW,2013-01-25 10:29:00,
2013-01-25 04:34:00,21.9,12.5,30.08,SSW,203,1.7,2.9,67,0.00,,,0.00,WUHU216HW,2013-01-25 10:34:00,
2013-01-25 04:39:00,21.9,12.5,30.08,West,270,0.0,2.9,67,0.00,,,0.00,WUHU216HW,2013-01-25 10:39:00,
2013-01-25 04:44:00,21.7,12.4,30.09,WNW,293,2.0,2.6,67,0.00,,,0.00,WUHU216HW,2013-01-25 10:44:00,
2013-01-25 04:49:00,21.7,12.4,30.09,SW,225,1.1,2.6,67,0.00,,,0.00,WUHU216HW,2013-01-25 10:49:00,
2013-01-25 04:55:00,21.7,12.4,30.09,WNW,293,0.0,2.0,67,0.00,,,0.00,WUHU216HW,2013-01-25 10:55:00,
2013-01-25 05:00:00,21.7,12.4,30.08,WSW,248,1.1,2.4,67,0.00,,,0.00,WUHU216HW,2013-01-25 11:00:00,
2013-01-25 05:05:00,21.7,12.4,30.08,West,270,2.4,2.4,67,0.00,,,0.00,WUHU216HW,2013-01-25 11:05:00,
2013-01-25 05:10:00,21.7,12.7,30.08,WSW,248,1.7,2.4,68,0.00,,,0.00,WUHU216HW,2013-01-25 11:10:00,
2013-01-25 05:14:00,21.7,12.7,30.07,SSW,203,3.3,4.9,68,0.00,,,0.00,WUHU216HW,2013-01-25 11:14:00,
2013-01-25 05:19:00,21.9,12.9,30.08,SW,225,1.5,4.9,68,0.00,,,0.00,WUHU216HW,2013-01-25 11:19:00,
2013-01-25 05:24:00,21.7,12.7,30.07,SW,225,3.1,3.3,68,0.00,,,0.00,WUHU216HW,2013-01-25 11:24:00,
2013-01-25 05:29:00,21.7,12.7,30.06,SSW,203,4.0,4.0,68,0.00,,,0.00,WUHU216HW,2013-01-25 11:29:00,
2013-01-25 05:34:00,21.7,12.7,30.06,WSW,248,2.2,4.0,68,0.00,,,0.00,WUHU216HW,2013-01-25 11:34:00,
2013-01-25 05:39:00,21.9,12.9,30.05,SSW,203,3.8,4.0,68,0.00,,,0.00,WUHU216HW,2013-01-25 11:39:00,
2013-01-25 05:44:00,21.9,12.9,30.06,SW,225,8.2,8.2,68,0.00,,,0.00,WUHU216HW,2013-01-25 11:44:00,
2013-01-25 05:49:00,21.9,12.9,30.05,SSW,203,4.6,8.2,68,0.00,,,0.00,WUHU216HW,2013-01-25 11:49:00,
2013-01-25 05:55:00,21.9,12.9,30.05,WSW,248,2.6,8.2,68,0.00,,,0.00,WUHU216HW,2013-01-25 11:55:00,
2013-01-25 06:00:00,21.9,12.9,30.05,SW,225,3.1,5.8,68,0.00,,,0.00,WUHU216HW,2013-01-25 12:00:00,
2013-01-25 06:05:00,21.9,12.9,30.04,SSW,203,6.7,6.7,68,0.00,,,0.00,WUHU216HW,2013-01-25 12:05:00,
2013-01-25 06:10:00,21.9,12.9,30.04,SSW,203,6.0,6.7,68,0.00,,,0.00,WUHU216HW,2013-01-25 12:10:00,
2013-01-25 06:15:00,21.9,12.9,30.04,WSW,248,4.2,6.7,68,0.00,,,0.00,WUHU216HW,2013-01-25 12:15:00,
2013-01-25 06:20:00,21.9,12.9,30.05,SW,225,6.0,6.0,68,0.00,,,0.00,WUHU216HW,2013-01-25 12:20:00,
2013-01-25 06:25:00,21.7,12.7,30.05,WSW,248,1.5,6.0,68,0.00,,,0.00,WUHU216HW,2013-01-25 12:25:00,
2013-01-25 06:30:00,21.9,12.9,30.06,WSW,248,2.2,6.0,68,0.00,,,0.00,WUHU216HW,2013-01-25 12:30:00,
2013-01-25 06:35:00,21.9,12.9,30.05,SW,225,2.4,5.1,68,0.00,,,0.00,WUHU216HW,2013-01-25 12:35:00,
2013-01-25 06:40:00,21.7,12.7,30.06,SW,225,3.8,5.1,68,0.00,,,0.00,WUHU216HW,2013-01-25 12:40:00,
2013-01-25 06:45:00,21.7,12.7,30.05,WSW,248,0.6,6.0,68,0.00,,,0.00,WUHU216HW,2013-01-25 12:45:00,
2013-01-25 06:50:00,21.5,12.5,30.06,SSW,203,3.1,6.0,68,0.00,,,0.00,WUHU216HW,2013-01-25 12:50:00,
2013-01-25 06:55:00,21.3,12.3,30.06,WSW,248,0.0,3.1,68,0.00,,,0.00,WUHU216HW,2013-01-25 12:55:00,
2013-01-25 07:00:00,21.0,12.0,30.06,SSW,203,2.4,3.1,68,0.00,,,0.00,WUHU216HW,2013-01-25 13:00:00,
2013-01-25 07:05:00,20.4,11.5,30.06,SW,225,0.6,2.6,68,0.00,,,0.00,WUHU216HW,2013-01-25 13:05:00,
2013-01-25 07:10:00,19.5,10.9,30.06,WSW,248,0.0,3.1,69,0.00,,,0.00,WUHU216HW,2013-01-25 13:10:00,
2013-01-25 07:15:00,19.2,10.6,30.06,WSW,248,0.0,3.1,69,0.00,,,0.00,WUHU216HW,2013-01-25 13:15:00,
2013-01-25 07:20:00,18.5,9.9,30.06,SW,225,1.5,1.5,69,0.00,,,0.00,WUHU216HW,2013-01-25 13:20:00,
2013-01-25 07:25:00,18.1,9.9,30.06,SW,225,0.6,1.5,70,0.00,,,0.00,WUHU216HW,2013-01-25 13:25:00,
2013-01-25 07:30:00,18.1,9.9,30.06,SW,225,1.3,1.5,70,0.00,,,0.00,WUHU216HW,2013-01-25 13:30:00,
2013-01-25 07:35:00,18.1,10.2,30.06,SW,225,3.3,3.3,71,0.00,,,0.00,WUHU216HW,2013-01-25 13:35:00,
2013-01-25 07:40:00,18.5,10.5,30.06,SW,225,4.2,4.2,71,0.00,,,0.00,WUHU216HW,2013-01-25 13:40:00,
2013-01-25 07:45:00,18.5,10.9,30.06,SSW,203,1.3,4.2,72,0.00,,,0.00,WUHU216HW,2013-01-25 13:45:00,
2013-01-25 07:51:00,18.5,10.7,30.07,SW,225,3.1,4.2,72,0.00,,,0.00,WUHU216HW,2013-01-25 13:51:00,
2013-01-25 07:56:00,18.3,10.7,30.06,SW,225,0.0,3.1,72,0.00,,,0.00,WUHU216HW,2013-01-25 13:56:00,
2013-01-25 08:01:00,18.5,10.9,30.06,WSW,248,2.2,2.2,72,0.00,,,0.00,WUHU216HW,2013-01-25 14:01:00,
2013-01-25 08:06:00,18.8,11.0,30.06,SSW,203,2.4,2.4,72,0.00,,,0.00,WUHU216HW,2013-01-25 14:06:00,
2013-01-25 08:11:00,19.0,11.3,30.06,WSW,248,0.8,2.9,72,0.00,,,0.00,WUHU216HW,2013-01-25 14:11:00,
2013-01-25 08:16:00,19.4,11.7,30.06,SW,225,2.6,6.0,72,0.00,,,0.00,WUHU216HW,2013-01-25 14:16:00,
2013-01-25 08:21:00,19.5,12.2,30.06,SW,225,2.0,6.0,73,0.00,,,0.00,WUHU216HW,2013-01-25 14:21:00,
2013-01-25 08:26:00,20.1,12.7,30.06,SW,225,1.5,2.6,73,0.00,,,0.00,WUHU216HW,2013-01-25 14:26:00,
2013-01-25 08:31:00,21.3,13.7,30.06,SW,225,2.0,3.5,72,0.00,,,0.00,WUHU216HW,2013-01-25 14:31:00,
2013-01-25 08:36:00,21.9,13.5,30.06,WSW,248,5.5,6.7,71,0.00,,,0.00,WUHU216HW,2013-01-25 14:36:00,
2013-01-25 08:41:00,22.8,14.1,30.06,SSW,203,2.4,6.7,69,0.00,,,0.00,WUHU216HW,2013-01-25 14:41:00,
2013-01-25 08:46:00,24.0,14.9,30.06,WSW,248,3.5,5.5,68,0.00,,,0.00,WUHU216HW,2013-01-25 14:46:00,
2013-01-25 08:51:00,25.3,15.8,30.06,South,180,5.8,5.8,67,0.00,,,0.00,WUHU216HW,2013-01-25 14:51:00,
2013-01-25 08:56:00,26.0,15.4,30.05,SW,225,4.9,5.8,64,0.00,,,0.00,WUHU216HW,2013-01-25 14:56:00,
2013-01-25 09:01:00,26.2,14.9,30.05,WNW,293,6.2,8.0,62,0.00,,,0.00,WUHU216HW,2013-01-25 15:01:00,
2013-01-25 09:06:00,25.8,14.2,30.05,WSW,248,3.1,8.0,61,0.00,,,0.00,WUHU216HW,2013-01-25 15:06:00,
2013-01-25 09:11:00,25.5,13.9,30.04,WSW,248,8.0,8.0,61,0.00,,,0.00,WUHU216HW,2013-01-25 15:11:00,
2013-01-25 09:16:00,25.7,14.0,30.05,West,270,2.2,8.0,61,0.00,,,0.00,WUHU216HW,2013-01-25 15:16:00,
2013-01-25 09:21:00,25.8,14.2,30.05,SW,225,6.4,6.4,61,0.00,,,0.00,WUHU216HW,2013-01-25 15:21:00,
2013-01-25 09:26:00,26.2,14.2,30.04,WSW,248,3.8,6.4,60,0.00,,,0.00,WUHU216HW,2013-01-25 15:26:00,
2013-01-25 09:31:00,27.6,15.6,30.04,SW,225,7.6,7.6,60,0.00,,,0.00,WUHU216HW,2013-01-25 15:31:00,
2013-01-25 09:36:00,28.9,15.5,30.04,WSW,248,8.5,8.5,57,0.00,,,0.00,WUHU216HW,2013-01-25 15:36:00,
2013-01-25 09:42:00,30.0,16.1,30.04,West,270,7.6,8.5,56,0.00,,,0.00,WUHU216HW,2013-01-25 15:42:00,
2013-01-25 09:47:00,31.8,16.9,30.04,WSW,248,4.0,8.5,54,0.00,,,0.00,WUHU216HW,2013-01-25 15:47:00,
2013-01-25 09:52:00,32.1,16.0,30.04,WNW,293,5.8,5.8,51,0.00,,,0.00,WUHU216HW,2013-01-25 15:52:00,
2013-01-25 09:57:00,32.5,15.9,30.04,West,270,5.8,6.9,50,0.00,,,0.00,WUHU216HW,2013-01-25 15:57:00,
2013-01-25 10:02:00,33.4,16.7,30.04,NNW,338,4.2,6.9,50,0.00,,,0.00,WUHU216HW,2013-01-25 16:02:00,
2013-01-25 10:07:00,33.6,15.8,30.04,WNW,293,2.4,5.3,48,0.00,,,0.00,WUHU216HW,2013-01-25 16:07:00,
2013-01-25 10:13:00,33.6,14.8,30.05,WNW,293,3.5,6.0,46,0.00,,,0.00,WUHU216HW,2013-01-25 16:13:00,
2013-01-25 10:18:00,34.3,16.0,30.05,West,270,3.1,8.7,47,0.00,,,0.00,WUHU216HW,2013-01-25 16:18:00,
2013-01-25 10:23:00,36.5,17.0,30.05,West,270,7.3,8.7,46,0.00,,,0.00,WUHU216HW,2013-01-25 16:23:00,
2013-01-25 10:28:00,37.2,17.1,30.06,WNW,293,5.8,7.6,44,0.00,,,0.00,WUHU216HW,2013-01-25 16:28:00,
2013-01-25 10:33:00,37.2,16.6,30.05,West,270,4.2,7.6,43,0.00,,,0.00,WUHU216HW,2013-01-25 16:33:00,
2013-01-25 10:38:00,36.6,16.1,30.05,West,270,6.4,6.9,43,0.00,,,0.00,WUHU216HW,2013-01-25 16:38:00,
2013-01-25 10:43:00,36.3,15.8,30.04,West,270,2.9,6.9,43,0.00,,,0.00,WUHU216HW,2013-01-25 16:43:00,
2013-01-25 10:48:00,36.8,16.8,30.04,WSW,248,4.9,6.4,44,0.00,,,0.00,WUHU216HW,2013-01-25 16:48:00,
2013-01-25 10:53:00,37.2,16.5,30.04,West,270,2.0,4.9,43,0.00,,,0.00,WUHU216HW,2013-01-25 16:53:00,
2013-01-25 10:58:00,37.2,16.6,30.04,WSW,248,5.3,5.3,43,0.00,,,0.00,WUHU216HW,2013-01-25 16:58:00,
2013-01-25 11:03:00,38.6,17.9,30.04,NW,315,2.4,6.2,43,0.00,,,0.00,WUHU216HW,2013-01-25 17:03:00,
2013-01-25 11:08:00,39.9,18.2,30.04,WNW,293,3.8,8.9,42,0.00,,,0.00,WUHU216HW,2013-01-25 17:08:00,
2013-01-25 11:13:00,40.2,17.8,30.04,West,270,3.8,8.9,40,0.00,,,0.00,WUHU216HW,2013-01-25 17:13:00,
2013-01-25 11:18:00,39.9,17.5,30.04,NW,315,3.1,5.1,40,0.00,,,0.00,WUHU216HW,2013-01-25 17:18:00,
2013-01-25 11:23:00,39.0,17.2,30.03,NW,315,3.5,3.8,41,0.00,,,0.00,WUHU216HW,2013-01-25 17:23:00,
2013-01-25 11:28:00,39.9,18.0,30.03,West,270,0.0,3.5,41,0.00,,,0.00,WUHU216HW,2013-01-25 17:28:00,
2013-01-25 11:33:00,41.3,19.3,30.02,WSW,248,3.5,3.5,41,0.00,,,0.00,WUHU216HW,2013-01-25 17:33:00,
2013-01-25 11:38:00,42.0,18.8,30.02,WSW,248,1.5,10.0,39,0.00,,,0.00,WUHU216HW,2013-01-25 17:38:00,
2013-01-25 11:43:00,42.2,18.9,30.02,SW,225,3.5,10.0,39,0.00,,,0.00,WUHU216HW,2013-01-25 17:43:00,
2013-01-25 11:48:00,42.9,19.6,30.02,WNW,293,1.5,7.8,39,0.00,,,0.00,WUHU216HW,2013-01-25 17:48:00,
2013-01-25 11:53:00,44.6,19.7,30.01,NW,315,8.9,8.9,37,0.00,,,0.00,WUHU216HW,2013-01-25 17:53:00,
2013-01-25 11:58:00,44.7,19.9,30.02,WNW,293,3.8,8.9,37,0.00,,,0.00,WUHU216HW,2013-01-25 17:58:00,
2013-01-25 12:03:00,45.1,20.2,30.01,NNW,338,6.2,8.9,37,0.00,,,0.00,WUHU216HW,2013-01-25 18:03:00,
2013-01-25 12:08:00,45.6,20.0,30.01,WSW,248,4.0,7.6,36,0.00,,,0.00,WUHU216HW,2013-01-25 18:08:00,
2013-01-25 12:13:00,46.0,20.3,30.01,West,270,3.1,4.4,36,0.00,,,0.00,WUHU216HW,2013-01-25 18:13:00,
2013-01-25 12:18:00,46.9,21.1,30.01,SSW,203,6.7,6.7,36,0.00,,,0.00,WUHU216HW,2013-01-25 18:18:00,
2013-01-25 12:23:00,47.1,21.0,30.01,WSW,248,2.0,8.0,35,0.00,,,0.00,WUHU216HW,2013-01-25 18:23:00,
2013-01-25 12:28:00,47.8,21.3,30.01,West,270,8.2,8.2,35,0.00,,,0.00,WUHU216HW,2013-01-25 18:28:00,
2013-01-25 12:33:00,47.3,20.1,30.01,WSW,248,7.6,8.9,34,0.00,,,0.00,WUHU216HW,2013-01-25 18:33:00,
2013-01-25 12:38:00,46.9,20.5,30.01,NNW,338,4.2,8.9,35,0.00,,,0.00,WUHU216HW,2013-01-25 18:38:00,
2013-01-25 12:43:00,46.9,20.5,30.00,WNW,293,4.4,8.5,35,0.00,,,0.00,WUHU216HW,2013-01-25 18:43:00,
2013-01-25 12:48:00,46.0,19.7,30.01,West,270,12.9,12.9,35,0.00,,,0.00,WUHU216HW,2013-01-25 18:48:00,
2013-01-25 12:53:00,45.8,20.2,30.00,West,270,6.7,12.9,36,0.00,,,0.00,WUHU216HW,2013-01-25 18:53:00,
2013-01-25 12:58:00,45.6,20.7,30.01,WNW,293,9.3,9.3,37,0.00,,,0.00,WUHU216HW,2013-01-25 18:58:00,
2013-01-25 13:03:00,45.6,20.0,30.00,West,270,3.8,9.3,36,0.00,,,0.00,WUHU216HW,2013-01-25 19:03:00,
2013-01-25 13:08:00,46.5,21.5,30.01,WNW,293,0.6,9.3,37,0.00,,,0.00,WUHU216HW,2013-01-25 19:08:00,
2013-01-25 13:13:00,46.7,21.0,30.00,WNW,293,15.4,15.4,36,0.00,,,0.00,WUHU216HW,2013-01-25 19:13:00,
2013-01-25 13:18:00,46.2,20.5,30.00,WSW,248,7.1,15.4,36,0.00,,,0.00,WUHU216HW,2013-01-25 19:18:00,
2013-01-25 13:23:00,46.5,21.5,30.00,North,0,2.0,15.4,37,0.00,,,0.00,WUHU216HW,2013-01-25 19:23:00,
2013-01-25 13:28:00,46.9,21.1,30.00,WNW,293,0.0,7.1,36,0.00,,,0.00,WUHU216HW,2013-01-25 19:28:00,
2013-01-25 13:33:00,46.9,21.1,30.00,NNW,338,5.3,7.1,36,0.00,,,0.00,WUHU216HW,2013-01-25 19:33:00,
2013-01-25 13:38:00,46.9,21.1,30.00,NW,315,4.4,8.5,36,0.00,,,0.00,WUHU216HW,2013-01-25 19:38:00,
2013-01-25 13:43:00,46.7,21.6,30.00,WNW,293,2.4,8.5,37,0.00,,,0.00,WUHU216HW,2013-01-25 19:43:00,
2013-01-25 13:48:00,46.9,21.1,30.00,NNW,338,6.2,6.2,36,0.00,,,0.00,WUHU216HW,2013-01-25 19:48:00,
2013-01-25 13:53:00,46.9,21.8,30.00,NW,315,3.5,6.2,37,0.00,,,0.00,WUHU216HW,2013-01-25 19:53:00,
2013-01-25 13:58:00,46.5,21.5,29.99,West,270,5.5,10.9,37,0.00,,,0.00,WUHU216HW,2013-01-25 19:58:00,
2013-01-25 14:03:00,46.2,21.2,29.99,NW,315,6.9,10.9,37,0.00,,,0.00,WUHU216HW,2013-01-25 20:03:00,
2013-01-25 14:08:00,45.3,21.0,29.99,WNW,293,11.1,11.1,38,0.00,,,0.00,WUHU216HW,2013-01-25 20:08:00,
2013-01-25 14:13:00,44.7,21.2,29.99,WNW,293,11.8,11.8,39,0.00,,,0.00,WUHU216HW,2013-01-25 20:13:00,
2013-01-25 14:18:00,44.4,21.5,29.99,NNW,338,4.9,11.8,40,0.00,,,0.00,WUHU216HW,2013-01-25 20:18:00,
2013-01-25 14:23:00,43.7,20.9,29.99,West,270,3.5,11.8,40,0.00,,,0.00,WUHU216HW,2013-01-25 20:23:00,
2013-01-25 14:28:00,43.7,21.4,29.99,NW,315,8.0,10.5,41,0.00,,,0.00,WUHU216HW,2013-01-25 20:28:00,
2013-01-25 14:33:00,43.5,21.3,29.99,NW,315,6.7,10.5,41,0.00,,,0.00,WUHU216HW,2013-01-25 20:33:00,
2013-01-25 14:38:00,43.5,21.3,29.99,WNW,293,5.8,10.5,41,0.00,,,0.00,WUHU216HW,2013-01-25 20:38:00,
2013-01-25 14:43:00,43.3,21.6,29.99,NW,315,6.9,11.6,42,0.00,,,0.00,WUHU216HW,2013-01-25 20:43:00,
2013-01-25 14:48:00,43.3,21.6,29.99,North,0,4.4,11.6,42,0.00,,,0.00,WUHU216HW,2013-01-25 20:48:00,
2013-01-25 14:53:00,43.1,21.5,29.99,West,270,6.0,7.3,42,0.00,,,0.00,WUHU216HW,2013-01-25 20:53:00,
2013-01-25 14:58:00,43.1,21.5,29.99,NW,315,4.6,6.0,43,0.00,,,0.00,WUHU216HW,2013-01-25 20:58:00,
2013-01-25 15:03:00,42.6,21.5,29.99,WNW,293,7.6,7.6,43,0.00,,,0.00,WUHU216HW,2013-01-25 21:03:00,
2013-01-25 15:08:00,42.4,21.9,30.00,NW,315,4.2,7.6,44,0.00,,,0.00,WUHU216HW,2013-01-25 21:08:00,
2013-01-25 15:13:00,42.0,21.5,30.00,WNW,293,10.5,10.5,44,0.00,,,0.00,WUHU216HW,2013-01-25 21:13:00,
2013-01-25 15:18:00,41.7,21.2,30.00,WNW,293,3.5,10.7,44,0.00,,,0.00,WUHU216HW,2013-01-25 21:18:00,
2013-01-25 15:23:00,41.5,21.6,29.99,SW,225,3.8,10.7,45,0.00,,,0.00,WUHU216HW,2013-01-25 21:23:00,
2013-01-25 15:28:00,41.5,21.6,30.00,NW,315,8.0,8.0,45,0.00,,,0.00,WUHU216HW,2013-01-25 21:28:00,
2013-01-25 15:33:00,41.1,21.2,30.00,West,270,3.1,8.7,45,0.00,,,0.00,WUHU216HW,2013-01-25 21:33:00,
2013-01-25 15:38:00,41.1,21.2,30.01,WNW,293,3.5,8.7,45,0.00,,,0.00,WUHU216HW,2013-01-25 21:38:00,
2013-01-25 15:43:00,40.8,21.4,30.01,NW,315,3.3,8.2,46,0.00,,,0.00,WUHU216HW,2013-01-25 21:43:00,
2013-01-25 15:48:00,40.8,21.4,30.01,NW,315,1.7,8.2,46,0.00,,,0.00,WUHU216HW,2013-01-25 21:48:00,
2013-01-25 15:53:00,40.4,21.6,30.01,NNW,338,4.0,5.5,47,0.00,,,0.00,WUHU216HW,2013-01-25 21:53:00,
2013-01-25 15:58:00,40.2,21.5,30.01,West,270,4.4,5.5,47,0.00,,,0.00,WUHU216HW,2013-01-25 21:58:00,
2013-01-25 16:03:00,39.7,21.5,30.01,WNW,293,2.2,7.3,48,0.00,,,0.00,WUHU216HW,2013-01-25 22:03:00,
2013-01-25 16:08:00,39.5,21.9,30.01,NNW,338,6.0,7.3,49,0.00,,,0.00,WUHU216HW,2013-01-25 22:08:00,
2013-01-25 16:13:00,39.3,21.9,30.01,WNW,293,5.1,6.0,50,0.00,,,0.00,WUHU216HW,2013-01-25 22:13:00,
2013-01-25 16:18:00,38.8,21.7,30.01,West,270,2.9,5.1,50,0.00,,,0.00,WUHU216HW,2013-01-25 22:18:00,
2013-01-25 16:23:00,38.4,21.4,30.01,NNW,338,6.9,6.9,50,0.00,,,0.00,WUHU216HW,2013-01-25 22:23:00,
2013-01-25 16:28:00,38.1,21.5,30.01,NNW,338,7.6,7.6,51,0.00,,,0.00,WUHU216HW,2013-01-25 22:28:00,
2013-01-25 16:33:00,37.7,21.6,30.01,NNW,338,4.2,8.2,52,0.00,,,0.00,WUHU216HW,2013-01-25 22:33:00,
2013-01-25 16:38:00,37.2,21.1,30.01,NW,315,6.0,8.2,52,0.00,,,0.00,WUHU216HW,2013-01-25 22:38:00,
2013-01-25 16:43:00,36.6,21.1,30.01,NNW,338,0.0,6.0,53,0.00,,,0.00,WUHU216HW,2013-01-25 22:43:00,
2013-01-25 16:48:00,36.3,21.2,30.01,NW,315,3.8,5.3,54,0.00,,,0.00,WUHU216HW,2013-01-25 22:48:00,
2013-01-25 16:53:00,36.1,21.0,30.01,North,0,6.2,6.2,54,0.00,,,0.00,WUHU216HW,2013-01-25 22:53:00,
2013-01-25 16:58:00,35.7,21.1,30.01,NW,315,1.1,6.2,55,0.00,,,0.00,WUHU216HW,2013-01-25 22:58:00,
2013-01-25 17:03:00,35.4,21.2,30.01,NW,315,0.8,3.5,56,0.00,,,0.00,WUHU216HW,2013-01-25 23:03:00,
2013-01-25 17:08:00,35.2,21.0,30.02,NNW,338,1.5,1.5,56,0.00,,,0.00,WUHU216HW,2013-01-25 23:08:00,
2013-01-25 17:13:00,34.7,20.1,30.02,NNW,338,0.0,1.5,55,0.00,,,0.00,WUHU216HW,2013-01-25 23:13:00,
2013-01-25 17:18:00,33.8,19.6,30.03,WNW,293,0.0,0.8,56,0.00,,,0.00,WUHU216HW,2013-01-25 23:18:00,
2013-01-25 17:23:00,33.4,19.7,30.03,NNW,338,1.1,2.2,57,0.00,,,0.00,WUHU216HW,2013-01-25 23:23:00,
2013-01-25 17:28:00,32.7,19.5,30.03,North,0,5.5,5.5,58,0.00,,,0.00,WUHU216HW,2013-01-25 23:28:00,
2013-01-25 17:33:00,32.5,20.2,30.03,NW,315,2.9,5.5,60,0.00,,,0.00,WUHU216HW,2013-01-25 23:33:00,
2013-01-25 17:38:00,32.5,20.2,30.04,NNW,338,2.4,5.5,60,0.00,,,0.00,WUHU216HW,2013-01-25 23:38:00,
2013-01-25 17:43:00,32.1,20.2,30.04,NW,315,1.7,2.9,61,0.00,,,0.00,WUHU216HW,2013-01-25 23:43:00,
2013-01-25 17:48:00,32.0,20.4,30.04,WNW,293,2.4,3.5,62,0.00,,,0.00,WUHU216HW,2013-01-25 23:48:00,
2013-01-25 17:53:00,31.8,20.3,30.04,WNW,293,0.0,3.5,62,0.00,,,0.00,WUHU216HW,2013-01-25 23:53:00,
2013-01-25 17:58:00,31.6,20.4,30.04,WNW,293,5.3,5.3,63,0.00,,,0.00,WUHU216HW,2013-01-25 23:58:00,
2013-01-25 18:03:00,31.8,20.6,30.05,NNW,338,0.8,5.3,63,0.00,,,0.00,WUHU216HW,2013-01-26 00:03:00,
2013-01-25 18:08:00,31.8,20.6,30.04,NNW,338,0.0,5.3,63,0.00,,,0.00,WUHU216HW,2013-01-26 00:08:00,
2013-01-25 18:13:00,31.6,20.8,30.05,WNW,293,2.4,4.6,64,0.00,,,0.00,WUHU216HW,2013-01-26 00:13:00,
2013-01-25 18:18:00,31.2,20.4,30.05,WNW,293,2.9,2.9,64,0.00,,,0.00,WUHU216HW,2013-01-26 00:18:00,
2013-01-25 18:23:00,31.1,20.3,30.05,WNW,293,3.5,3.5,64,0.00,,,0.00,WUHU216HW,2013-01-26 00:23:00,
2013-01-25 18:28:00,30.9,20.4,30.06,WNW,293,1.1,3.8,65,0.00,,,0.00,WUHU216HW,2013-01-26 00:28:00,
2013-01-25 18:33:00,30.9,20.4,30.05,WNW,293,1.3,3.8,65,0.00,,,0.00,WUHU216HW,2013-01-26 00:33:00,
2013-01-25 18:38:00,30.7,20.3,30.06,NNW,338,3.8,3.8,65,0.00,,,0.00,WUHU216HW,2013-01-26 00:38:00,
2013-01-25 18:43:00,30.5,20.4,30.06,WNW,293,2.0,3.8,66,0.00,,,0.00,WUHU216HW,2013-01-26 00:43:00,
2013-01-25 18:48:00,30.3,20.3,30.06,NNW,338,2.9,2.9,66,0.00,,,0.00,WUHU216HW,2013-01-26 00:48:00,
2013-01-25 18:53:00,30.3,20.6,30.07,NNW,338,10.7,10.7,67,0.00,,,0.00,WUHU216HW,2013-01-26 00:53:00,
2013-01-25 18:58:00,30.7,21.2,30.07,WNW,293,3.5,10.7,68,0.00,,,0.00,WUHU216HW,2013-01-26 00:58:00,
2013-01-25 19:03:00,30.7,21.0,30.07,NNW,338,8.5,8.5,67,0.00,,,0.00,WUHU216HW,2013-01-26 01:03:00,
2013-01-25 19:08:00,30.7,21.3,30.07,NNW,338,1.3,8.5,68,0.00,,,0.00,WUHU216HW,2013-01-26 01:08:00,
2013-01-25 19:13:00,30.5,21.2,30.07,North,0,4.2,8.5,68,0.00,,,0.00,WUHU216HW,2013-01-26 01:13:00,
2013-01-25 19:18:00,30.5,21.2,30.07,NW,315,3.8,4.2,68,0.00,,,0.00,WUHU216HW,2013-01-26 01:18:00,
2013-01-25 19:23:00,30.3,21.0,30.07,NNW,338,4.6,4.6,68,0.00,,,0.00,WUHU216HW,2013-01-26 01:23:00,
2013-01-25 19:28:00,30.3,21.3,30.08,North,0,5.1,13.6,69,0.00,,,0.00,WUHU216HW,2013-01-26 01:28:00,
2013-01-25 19:33:00,30.5,21.5,30.08,NNW,338,4.0,13.6,69,0.00,,,0.00,WUHU216HW,2013-01-26 01:33:00,
2013-01-25 19:38:00,30.3,21.0,30.08,North,0,2.0,5.1,68,0.00,,,0.00,WUHU216HW,2013-01-26 01:38:00,
2013-01-25 19:43:00,30.0,21.0,30.08,North,0,3.8,6.2,69,0.00,,,0.00,WUHU216HW,2013-01-26 01:43:00,
2013-01-25 19:48:00,30.0,21.0,30.08,NW,315,5.1,7.6,69,0.00,,,0.00,WUHU216HW,2013-01-26 01:48:00,
2013-01-25 19:53:00,29.8,20.8,30.08,WNW,293,3.8,7.6,69,0.00,,,0.00,WUHU216HW,2013-01-26 01:53:00,
2013-01-25 19:58:00,29.8,20.8,30.09,NNW,338,5.3,5.3,69,0.00,,,0.00,WUHU216HW,2013-01-26 01:58:00,
2013-01-25 20:03:00,29.8,21.2,30.09,NNW,338,5.3,5.3,70,0.00,,,0.00,WUHU216HW,2013-01-26 02:03:00,
2013-01-25 20:08:00,29.6,21.0,30.09,WNW,293,0.0,5.3,70,0.00,,,0.00,WUHU216HW,2013-01-26 02:08:00,
2013-01-25 20:13:00,29.3,20.7,30.09,NW,315,2.2,5.3,70,0.00,,,0.00,WUHU216HW,2013-01-26 02:13:00,
2013-01-25 20:18:00,29.1,20.5,30.10,NNW,338,3.1,5.1,70,0.00,,,0.00,WUHU216HW,2013-01-26 02:18:00,
2013-01-25 20:23:00,29.1,20.8,30.10,NW,315,7.1,7.1,71,0.00,,,0.00,WUHU216HW,2013-01-26 02:23:00,
2013-01-25 20:28:00,28.9,21.0,30.10,NW,315,2.9,8.5,72,0.00,,,0.00,WUHU216HW,2013-01-26 02:28:00,
2013-01-25 20:33:00,28.9,20.7,30.11,WNW,293,1.5,8.5,71,0.00,,,0.00,WUHU216HW,2013-01-26 02:33:00,
2013-01-25 20:38:00,28.7,20.8,30.11,NNW,338,11.8,11.8,72,0.00,,,0.00,WUHU216HW,2013-01-26 02:38:00,
2013-01-25 20:43:00,28.2,20.0,30.12,North,0,10.7,11.8,71,0.00,,,0.00,WUHU216HW,2013-01-26 02:43:00,
2013-01-25 20:48:00,27.5,18.6,30.12,North,0,11.1,11.1,69,0.00,,,0.00,WUHU216HW,2013-01-26 02:48:00,
2013-01-25 20:53:00,26.4,16.5,30.13,NNE,23,5.8,15.6,66,0.00,,,0.00,WUHU216HW,2013-01-26 02:53:00,
2013-01-25 20:58:00,25.5,15.6,30.13,NNW,338,10.5,15.6,66,0.00,,,0.00,WUHU216HW,2013-01-26 02:58:00,
2013-01-25 21:03:00,24.9,15.1,30.13,North,0,6.4,10.5,66,0.00,,,0.00,WUHU216HW,2013-01-26 03:03:00,
2013-01-25 21:08:00,24.4,14.9,30.14,North,0,3.5,10.5,67,0.00,,,0.00,WUHU216HW,2013-01-26 03:08:00,
2013-01-25 21:13:00,23.7,14.6,30.14,North,0,7.8,7.8,67,0.00,,,0.00,WUHU216HW,2013-01-26 03:13:00,
2013-01-25 21:18:00,23.5,14.4,30.14,NW,315,5.3,7.8,68,0.00,,,0.00,WUHU216HW,2013-01-26 03:18:00,
2013-01-25 21:23:00,23.0,14.0,30.15,NNE,23,9.6,9.6,68,0.00,,,0.00,WUHU216HW,2013-01-26 03:23:00,
2013-01-25 21:28:00,22.6,13.6,30.15,NNE,23,4.0,11.1,68,0.00,,,0.00,WUHU216HW,2013-01-26 03:28:00,
2013-01-25 21:33:00,22.1,12.7,30.15,NNE,23,14.5,14.5,67,0.00,,,0.00,WUHU216HW,2013-01-26 03:33:00,
2013-01-25 21:38:00,21.9,11.8,30.16,North,0,12.9,14.5,65,0.00,,,0.00,WUHU216HW,2013-01-26 03:38:00,
2013-01-25 21:44:00,21.3,11.0,30.16,North,0,11.4,14.5,64,0.00,,,0.00,WUHU216HW,2013-01-26 03:44:00,
2013-01-25 21:49:00,21.0,10.3,30.17,NNE,23,7.8,11.4,63,0.00,,,0.00,WUHU216HW,2013-01-26 03:49:00,
2013-01-25 21:54:00,21.0,10.3,30.17,NNE,23,10.9,12.9,63,0.00,,,0.00,WUHU216HW,2013-01-26 03:54:00,
2013-01-25 21:59:00,20.4,10.1,30.17,NNW,338,6.2,12.9,64,0.00,,,0.00,WUHU216HW,2013-01-26 03:59:00,
2013-01-25 22:04:00,20.3,9.9,30.18,NNE,23,6.2,8.5,64,0.00,,,0.00,WUHU216HW,2013-01-26 04:04:00,
2013-01-25 22:09:00,19.9,9.6,30.19,North,0,5.5,10.2,64,0.00,,,0.00,WUHU216HW,2013-01-26 04:09:00,
2013-01-25 22:14:00,19.5,8.9,30.19,NW,315,4.4,12.0,63,0.00,,,0.00,WUHU216HW,2013-01-26 04:14:00,
2013-01-25 22:19:00,19.5,8.5,30.20,North,0,2.9,12.0,62,0.00,,,0.00,WUHU216HW,2013-01-26 04:19:00,
2013-01-25 22:24:00,19.2,8.2,30.20,NNW,338,6.4,10.5,62,0.00,,,0.00,WUHU216HW,2013-01-26 04:24:00,
2013-01-25 22:29:00,18.8,7.8,30.21,North,0,6.9,7.8,62,0.00,,,0.00,WUHU216HW,2013-01-26 04:29:00,
2013-01-25 22:34:00,18.6,7.7,30.20,North,0,4.6,8.2,62,0.00,,,0.00,WUHU216HW,2013-01-26 04:34:00,
2013-01-25 22:39:00,18.5,7.5,30.20,North,0,3.5,8.2,62,0.00,,,0.00,WUHU216HW,2013-01-26 04:39:00,
2013-01-25 22:44:00,18.3,7.0,30.20,North,0,4.0,6.4,61,0.00,,,0.00,WUHU216HW,2013-01-26 04:44:00,
2013-01-25 22:49:00,17.9,7.0,30.21,North,0,2.9,8.0,62,0.00,,,0.00,WUHU216HW,2013-01-26 04:49:00,
2013-01-25 22:54:00,17.7,6.9,30.21,North,0,4.2,10.5,62,0.00,,,0.00,WUHU216HW,2013-01-26 04:54:00,
2013-01-25 22:59:00,17.6,6.7,30.21,NNW,338,7.1,10.5,62,0.00,,,0.00,WUHU216HW,2013-01-26 04:59:00,
2013-01-25 23:00:00,17.6,6.7,30.21,NNW,338,7.1,10.5,62,0.00,,,0.00,WUHU216HW,2013-01-26 05:00:00,
2013-01-25 23:02:00,17.4,6.5,30.21,North,0,8.9,8.9,62,0.00,,,0.00,WUHU216HW,2013-01-26 05:02:00,
2013-01-25 23:03:00,17.4,6.2,30.21,NNW,338,5.3,8.9,61,0.00,,,0.00,WUHU216HW,2013-01-26 05:03:00,
2013-01-25 23:08:00,17.2,6.0,30.22,North,0,8.9,12.9,61,0.00,,,0.00,WUHU216HW,2013-01-26 05:08:00,
2013-01-25 23:13:00,17.0,5.8,30.22,NNW,338,10.5,12.9,61,0.00,,,0.00,WUHU216HW,2013-01-26 05:13:00,
2013-01-25 23:18:00,16.7,5.1,30.22,NNW,338,5.1,11.4,60,0.00,,,0.00,WUHU216HW,2013-01-26 05:18:00,
2013-01-25 23:23:00,16.3,5.1,30.22,NNE,23,6.7,11.4,61,0.00,,,0.00,WUHU216HW,2013-01-26 05:23:00,
2013-01-25 23:28:00,16.3,5.1,30.22,NNW,338,7.6,7.6,61,0.00,,,0.00,WUHU216HW,2013-01-26 05:28:00,
2013-01-25 23:33:00,15.9,4.8,30.22,North,0,4.9,8.7,61,0.00,,,0.00,WUHU216HW,2013-01-26 05:33:00,
2013-01-25 23:38:00,15.8,4.6,30.23,North,0,6.2,8.7,61,0.00,,,0.00,WUHU216HW,2013-01-26 05:38:00,
2013-01-25 23:43:00,15.6,4.8,30.22,North,0,5.8,7.1,62,0.00,,,0.00,WUHU216HW,2013-01-26 05:43:00,
2013-01-25 23:48:00,15.4,4.6,30.23,North,0,7.8,7.8,62,0.00,,,0.00,WUHU216HW,2013-01-26 05:48:00,
2013-01-25 23:53:00,15.2,4.4,30.22,North,0,8.0,8.0,62,0.00,,,0.00,WUHU216HW,2013-01-26 05:53:00,
2013-01-25 23:58:00,14.9,4.1,30.23,NNE,23,10.7,10.7,62,0.00,,,0.00,WUHU216HW,2013-01-26 05:58:00,